Flag for Russia Weather past 2 weeks in Yuzhno-Sakhalinsk, Russia

25 °F

Snow flurries. Partly cloudy.

Feels Like: 11 °F
Forecast: 11 / 23 °F
Wind: 17 mph from Northeast

Location: Yuzhno Airport-Sakhalinsk

Current Time: Dec 1, 2015 at 3:07:34 AM

Latest Report: Dec 1, 2015 at 2:00 AM

Visibility: 2 mi

Pressure: 29.86 "Hg

Humidity: 86%

Dew point: 21 °F

Location of Yuzhno-SakhalinskLocation

Historic Weather in Yuzhno-Sakhalinsk — Graph


Yuzhno-Sakhalinsk temperature yesterday

Maximum temperature yesterday: 34 °F (at 3:30 PM)
Minimum temperature yesterday: 14 °F (at 2:00 AM)
Average temperature yesterday: 24 °F

Past Weeks' High & Low Weather Summary

High43 °F (Nov 16, 6:30 AM)100% (Nov 16, 1:00 AM)30.45 "Hg (Nov 16, 1:00 AM)
Low0 °F (Nov 25, 10:00 PM)26% (Nov 16, 2:30 PM)29.56 "Hg (Nov 27, 11:00 PM)
Average25 °F78%30.12 "Hg
* Reported Nov 16 1:00 AM — Dec 1 1:00 AM, Yuzhno-Sakhalinsk, Weather by CustomWeather, © 2015

Note: Actual official high and low records may vary slightly from our data, if they occured in-between our weather recording intervals... More about our weather records


Yuzhno-Sakhalinsk weather history for previous 24 hours

Time TempWeatherWind HumidityBarometerVisibility
1:00 AM
Tue, Dec 1
25 °FHeavy snow. Ice fog.15 mph93%29.86 "Hg1 mi
12:00 AM27 °FSnow showers. Mostly cloudy.10 mph93%29.86 "Hg1 mi
11:00 PM
Mon, Nov 30
27 °FSnow showers. Mostly cloudy.10 mph100%29.86 "Hg1 mi
10:00 PM28 °FSnow showers. Mostly cloudy.17 mph93%29.92 "Hg1 mi
9:30 PM28 °FSnow showers. Mostly cloudy.15 mph100%29.92 "Hg1 mi
9:00 PM28 °FSnow flurries. Partly cloudy.13 mph93%29.92 "Hg1 mi
8:30 PM28 °FSnow flurries. Passing clouds.13 mph100%29.92 "Hg1 mi
8:00 PM28 °FSnow flurries. Passing clouds.13 mph100%29.95 "Hg1 mi
7:30 PM30 °FSnow showers. Mostly cloudy.8 mph100%29.95 "Hg1 mi
7:00 PM30 °FSnow showers. Partly cloudy.3 mph100%29.95 "Hg1 mi
6:30 PM30 °FSnow showers. Partly cloudy.1 mph100%29.98 "Hg1 mi
6:00 PM30 °FSnow flurries. Partly cloudy.No wind100%29.98 "Hg2 mi
5:30 PM30 °FSnow flurries. Partly cloudy.1 mph93%29.98 "Hg2 mi
5:00 PM30 °FSnow flurries. Passing clouds.1 mph86%29.98 "HgN/A
4:30 PM30 °FScattered clouds.1 mph86%29.98 "HgN/A
4:00 PM32 °FScattered clouds.1 mph80%29.98 "HgN/A
3:30 PM34 °FPartly sunny.1 mph87%30.01 "HgN/A
3:00 PM32 °FPartly sunny.1 mph80%30.01 "HgN/A
2:30 PM32 °FPartly sunny.1 mph80%30.01 "HgN/A
1:30 PM30 °FScattered clouds.1 mph86%30.04 "HgN/A
1:00 PM28 °FScattered clouds.3 mph86%30.04 "HgN/A
12:30 PM30 °FScattered clouds.No wind75%30.07 "HgN/A
12:00 PM27 °FScattered clouds.1 mph86%30.07 "HgN/A
11:30 AM25 °FScattered clouds.1 mph93%30.09 "HgN/A
10:30 AM23 °FPassing clouds.No wind100%30.12 "HgN/A
10:00 AM21 °FPassing clouds.1 mph100%30.12 "HgN/A
9:30 AM21 °FPassing clouds.3 mph93%30.12 "HgN/A
9:00 AM19 °FPassing clouds.1 mph93%30.12 "HgN/A
8:30 AM19 °FPassing clouds.No wind93%30.12 "HgN/A
8:00 AM19 °FSnow flurries. Scattered clouds.1 mph93%30.15 "HgN/A
7:30 AM18 °FClear.3 mph93%30.15 "HgN/A
7:00 AM18 °FClear.3 mph93%30.15 "HgN/A
6:30 AM16 °FClear.3 mph93%30.15 "HgN/A
6:00 AM16 °FClear.1 mph100%30.15 "HgN/A
5:30 AM16 °FClear.3 mph93%30.18 "HgN/A
5:00 AM16 °FClear.3 mph93%30.18 "HgN/A
4:00 AM14 °FClear.1 mph100%30.18 "HgN/A
3:00 AM16 °FClear.3 mph93%30.18 "HgN/A
Weather by CustomWeather, © 2015

See weather overviewHow to use our weather pages